This is the latest recevied weather packets stored in our database for station/object DJ4RO-13. If no packets are shown the sender has not sent any weather packets the latest 10 day(s).
| Time | Temp. | Humidity | Pressure | Rain* | Wind** | Luminosity | Snow |
|---|---|---|---|---|---|---|---|
| 1777532333 | 11.11° C | 51% | 1038.1 hPa | 0 mm | - | 319 W/m² | - |
| 1777532013 | 11.11° C | 51% | 1038 hPa | 0 mm | - | 306 W/m² | - |
| 1777531693 | 10.56° C | 53% | 1038.1 hPa | 0 mm | - | 294 W/m² | - |
| 1777531373 | 10° C | 51% | 1038.3 hPa | 0 mm | - | 281 W/m² | - |
| 1777531052 | 9.44° C | 54% | 1038.1 hPa | 0 mm | - | 269 W/m² | - |
| 1777530733 | 9.44° C | 55% | 1038.2 hPa | 0 mm | - | 257 W/m² | - |
| 1777530413 | 9.44° C | 56% | 1038.2 hPa | 0 mm | - | 243 W/m² | - |
| 1777530092 | 8.89° C | 58% | 1038.2 hPa | 0 mm | - | 228 W/m² | - |
| 1777529772 | 8.33° C | 59% | 1038.2 hPa | 0 mm | - | 216 W/m² | - |
| 1777529453 | 7.78° C | 62% | 1038.1 hPa | 0 mm | - | 204 W/m² | - |
| 1777529132 | 7.78° C | 65% | 1038.2 hPa | 0 mm | - | 191 W/m² | - |
| 1777528813 | 7.78° C | 63% | 1038 hPa | 0 mm | - | 179 W/m² | - |
| 1777528493 | 7.78° C | 63% | 1037.8 hPa | 0 mm | - | 162 W/m² | - |
| 1777528173 | 8.89° C | 64% | 1037.9 hPa | 0 mm | - | 154 W/m² | - |
| 1777527853 | 10° C | 61% | 1038 hPa | 0 mm | - | 144 W/m² | - |
| 1777527533 | 10° C | 57% | 1038 hPa | 0 mm | - | 132 W/m² | - |
| 1777527213 | 8.89° C | 61% | 1037.8 hPa | 0 mm | - | 109 W/m² | - |
| 1777526893 | 7.78° C | 65% | 1037.8 hPa | 0 mm | - | 75 W/m² | - |
| 1777526573 | 7.22° C | 67% | 1037.9 hPa | 0 mm | - | 64 W/m² | - |
| 1777526254 | 5.56° C | 77% | 1037.8 hPa | 0 mm | - | 57 W/m² | - |
| 1777525933 | 3.33° C | 94% | 1037.9 hPa | 0 mm | - | 53 W/m² | - |
| 1777525613 | 2.22° C | 94% | 1038 hPa | 0 mm | - | 49 W/m² | - |
| 1777525292 | 0.56° C | 95% | 1037.8 hPa | 0 mm | - | 69 W/m² | - |
| 1777524973 | 0.56° C | 95% | 1038 hPa | 0 mm | - | 28 W/m² | - |
| 1777524653 | 0.56° C | 95% | 1038 hPa | 0 mm | - | 27 W/m² | - |
* Rain latest hour (hover to see other rain measurements)
** Current wind speed in m/s (hover to see current wind gust speed)